| time (UTC) | temp F | wind direction | speed MPH | gust MPH | rain 1hr in | rain 24hr in | rain mn in | humidity % | barometer mb |
| 20260506012815 | 76 | 65 | 0.0 | 3.0 | 0.00 | 0.00 | 0.00 | 36 | 911.4 |
| 20260506011246 | 76 | 39 | 1.0 | 5.0 | 0.00 | 0.00 | 0.00 | 36 | 911.2 |
| 20260506005800 | 77 | 21 | 1.0 | 6.0 | 0.00 | 0.00 | 0.00 | 35 | 911.2 |
| 20260506004246 | 77 | 76 | 1.0 | 3.0 | 0.00 | 0.00 | 0.00 | 35 | 911.1 |
| 20260506002707 | 78 | 43 | 1.0 | 10.0 | 0.00 | 0.00 | 0.00 | 34 | 911.1 |
| 20260506001220 | 78 | 296 | 3.0 | 10.0 | 0.00 | 0.00 | 0.00 | 34 | 911.1 |
| 20260505235744 | 79 | 72 | 2.0 | 8.0 | 0.00 | 0.00 | 0.00 | 33 | 911.0 |
| 20260505234237 | 80 | 54 | 3.0 | 9.0 | 0.00 | 0.00 | 0.00 | 32 | 911.1 |
| 20260505232805 | 80 | 19 | 2.0 | 11.0 | 0.00 | 0.00 | 0.00 | 31 | 911.1 |
| 20260505231317 | 80 | 62 | 3.0 | 11.0 | 0.00 | 0.00 | 0.00 | 31 | 911.1 |
| 20260505225759 | 80 | 66 | 2.0 | 10.0 | 0.00 | 0.00 | 0.00 | 31 | 911.1 |
| 20260505224304 | 81 | 42 | 3.0 | 12.0 | 0.00 | 0.00 | 0.00 | 31 | 911.1 |
| 20260505222721 | 81 | 20 | 3.0 | 11.0 | 0.00 | 0.00 | 0.00 | 30 | 911.2 |
| 20260505221206 | 81 | 84 | 3.0 | 9.0 | 0.00 | 0.00 | 0.00 | 30 | 911.2 |
| 20260505215631 | 82 | 85 | 3.0 | 10.0 | 0.00 | 0.00 | 0.00 | 29 | 911.4 |
| 20260505214139 | 81 | 22 | 3.0 | 10.0 | 0.00 | 0.00 | 0.00 | 30 | 911.4 |
| 20260505212621 | 80 | 209 | 3.0 | 9.0 | 0.00 | 0.00 | 0.00 | 28 | 911.5 |
| 20260505211107 | 80 | 35 | 2.0 | 8.0 | 0.00 | 0.00 | 0.00 | 29 | 911.5 |
| 20260505205534 | 80 | 42 | 3.0 | 13.0 | 0.00 | 0.00 | 0.00 | 31 | 911.6 |
| 20260505204053 | 79 | 321 | 3.0 | 13.0 | 0.00 | 0.00 | 0.00 | 31 | 911.7 |
| 20260505202625 | 79 | 62 | 3.0 | 9.0 | 0.00 | 0.00 | 0.00 | 34 | 911.7 |
| 20260505201138 | 78 | 68 | 3.0 | 10.0 | 0.00 | 0.00 | 0.00 | 36 | 911.8 |
| 20260505195629 | 78 | 50 | 3.0 | 10.0 | 0.00 | 0.00 | 0.00 | 36 | 911.9 |
| 20260505194139 | 78 | 68 | 3.0 | 9.0 | 0.00 | 0.00 | 0.00 | 37 | 911.9 |
| 20260505192600 | 78 | 76 | 2.0 | 8.0 | 0.00 | 0.00 | 0.00 | 36 | 911.9 |
| 20260505191113 | 77 | 72 | 2.0 | 8.0 | 0.00 | 0.00 | 0.00 | 35 | 912.0 |
| 20260505185530 | 76 | 55 | 2.0 | 7.0 | 0.00 | 0.00 | 0.00 | 37 | 912.0 |
| 20260505184019 | 75 | 36 | 1.0 | 5.0 | 0.00 | 0.00 | 0.00 | 39 | 912.1 |
| 20260505182435 | 74 | 62 | 2.0 | 5.0 | 0.00 | 0.00 | 0.00 | 40 | 912.0 |
| 20260505180904 | 72 | 31 | 1.0 | 6.0 | 0.00 | 0.00 | 0.00 | 42 | 912.1 |
| 20260505175356 | 72 | 100 | 1.0 | 6.0 | 0.00 | 0.00 | 0.00 | 42 | 912.1 |
| 20260505173930 | 72 | 91 | 2.0 | 6.0 | 0.00 | 0.00 | 0.00 | 42 | 912.2 |
| 20260505172452 | 70 | 159 | 1.0 | 4.0 | 0.00 | 0.00 | 0.00 | 45 | 912.1 |
| 20260505170925 | 69 | 355 | 1.0 | 6.0 | 0.00 | 0.00 | 0.00 | 47 | 912.1 |
| 20260505165417 | 68 | 23 | 1.0 | 6.0 | 0.00 | 0.00 | 0.00 | 50 | 912.4 |
| 20260505163903 | 67 | 57 | 0.0 | 6.0 | 0.00 | 0.00 | 0.00 | 51 | 912.3 |
| 20260505162355 | 66 | 338 | 0.0 | 5.0 | 0.00 | 0.00 | 0.00 | 53 | 912.3 |
| 20260505160924 | 65 | 334 | 0.0 | 2.0 | 0.00 | 0.00 | 0.00 | 54 | 912.6 |
| 20260505152335 | 61 | 67 | 0.0 | 1.0 | 0.00 | 0.00 | 0.00 | 61 | 912.7 |
| 20260505150848 | 59 | 22 | 0.0 | 3.0 | 0.00 | 0.00 | 0.00 | 65 | 912.5 |
| 20260505123850 | 39 | 221 | 0.0 | 0.0 | 0.00 | 0.00 | 0.00 | 89 | 911.0 |
| 20260505122357 | 40 | 221 | 0.0 | 0.0 | 0.00 | 0.00 | 0.00 | 90 | 911.0 |
| 20260505120819 | 40 | 221 | 0.0 | 0.0 | 0.00 | 0.00 | 0.00 | 85 | 910.8 |
| 20260505115232 | 40 | 221 | 0.0 | 0.0 | 0.00 | 0.00 | 0.00 | 87 | 910.9 |
| 20260505113709 | 39 | 221 | 0.0 | 0.0 | 0.00 | 0.00 | 0.00 | 85 | 911.0 |
| 20260505112207 | 40 | 221 | 0.0 | 0.0 | 0.00 | 0.00 | 0.00 | 86 | 910.9 |
| 20260505110729 | 40 | 221 | 0.0 | 0.0 | 0.00 | 0.00 | 0.00 | 87 | 910.9 |
| 20260505100746 | 42 | 221 | 0.0 | 0.0 | 0.00 | 0.00 | 0.00 | 82 | 910.5 |
| 20260505095323 | 42 | 221 | 0.0 | 0.0 | 0.00 | 0.00 | 0.00 | 79 | 910.7 |
| 20260505093848 | 43 | 221 | 0.0 | 0.0 | 0.00 | 0.00 | 0.00 | 81 | 910.6 |
| 20260505092316 | 43 | 221 | 0.0 | 0.0 | 0.00 | 0.00 | 0.00 | 82 | 910.6 |
| 20260505090851 | 44 | 221 | 0.0 | 0.0 | 0.00 | 0.00 | 0.00 | 81 | 910.4 |
| 20260505085419 | 44 | 221 | 0.0 | 0.0 | 0.00 | 0.00 | 0.00 | 79 | 910.4 |
| 20260505083924 | 44 | 221 | 0.0 | 0.0 | 0.00 | 0.00 | 0.00 | 76 | 910.5 |
| 20260505082407 | 45 | 221 | 0.0 | 0.0 | 0.00 | 0.00 | 0.00 | 76 | 910.5 |
| 20260505080935 | 45 | 221 | 0.0 | 0.0 | 0.00 | 0.00 | 0.00 | 75 | 910.5 |
| 20260505075355 | 46 | 221 | 0.0 | 0.0 | 0.00 | 0.00 | 0.00 | 76 | 910.5 |
| 20260505073824 | 46 | 221 | 0.0 | 0.0 | 0.00 | 0.00 | 0.00 | 75 | 910.4 |
| 20260505072305 | 46 | 221 | 0.0 | 0.0 | 0.00 | 0.00 | 0.00 | 74 | 910.4 |
| 20260505070834 | 46 | 221 | 0.0 | 0.0 | 0.00 | 0.00 | 0.00 | 71 | 910.3 |
| 20260505065258 | 47 | 234 | 0.0 | 0.0 | 0.00 | 0.00 | 0.00 | 68 | 910.2 |
| 20260505063725 | 48 | 226 | 0.0 | 0.0 | 0.00 | 0.00 | 0.00 | 69 | 910.3 |
| 20260505062215 | 49 | 221 | 0.0 | 0.0 | 0.00 | 0.00 | 0.00 | 64 | 910.1 |
| 20260505060639 | 50 | 221 | 0.0 | 0.0 | 0.00 | 0.00 | 0.00 | 68 | 910.0 |
| 20260505055135 | 51 | 221 | 0.0 | 0.0 | 0.00 | 0.00 | 0.00 | 63 | 910.0 |
| 20260505053620 | 52 | 221 | 0.0 | 0.0 | 0.00 | 0.00 | 0.00 | 60 | 910.0 |
| 20260505052125 | 54 | 223 | 0.0 | 0.0 | 0.00 | 0.00 | 0.00 | 57 | 909.9 |
| 20260505050651 | 56 | 222 | 0.0 | 0.0 | 0.00 | 0.00 | 0.00 | 54 | 909.8 |
| 20260505040612 | 64 | 142 | 0.0 | 0.0 | 0.00 | 0.00 | 0.00 | 48 | 909.3 |
| 20260505035146 | 65 | 142 | 0.0 | 0.0 | 0.00 | 0.00 | 0.00 | 45 | 909.0 |
| 20260505033620 | 67 | 21 | 0.0 | 0.0 | 0.00 | 0.00 | 0.00 | 42 | 908.9 |
| 20260505032131 | 69 | 42 | 0.0 | 0.0 | 0.00 | 0.00 | 0.00 | 38 | 908.8 |
| 20260505030625 | 70 | 247 | 0.0 | 0.0 | 0.00 | 0.00 | 0.00 | 36 | 908.5 |
| 20260505025132 | 71 | 136 | 0.0 | 0.0 | 0.00 | 0.00 | 0.00 | 28 | 908.3 |
| 20260505023549 | 72 | 57 | 0.0 | 0.0 | 0.00 | 0.00 | 0.00 | 25 | 908.1 |
| 20260505022037 | 73 | 74 | 0.0 | 4.0 | 0.00 | 0.00 | 0.00 | 23 | 908.1 |
| 20260505020536 | 74 | 59 | 0.0 | 3.0 | 0.00 | 0.00 | 0.00 | 23 | 908.0 |
| 20260505015026 | 75 | 103 | 0.0 | 9.0 | 0.00 | 0.00 | 0.00 | 23 | 908.0 |